Regional Weather Roundup
Issued by NWS

Home | Current Version | Previous Version | Graphics & Text | Print | Product List | Glossary On
Versions: 1 2 3 4 5 6 7 8 9 10 11 12 13 14 15 16 17 18 19 20 21 22 23 24 25 26 27 28 29 30 31 32 33 34 35 36 37 38 39 40 41 42 43 44 45 46 47 48 49
000
ASUS45 KCYS 050910
RWRWY

WYOMING REGIONAL WEATHER ROUNDUP
NATIONAL WEATHER SERVICE CHEYENNE WY
200 AM MST FRI FEB 05 2016

NOTE:  "FAIR" INDICATES FEW OR NO CLOUDS BELOW 12,000 FEET
WITH NO SIGNIFICANT WEATHER AND/OR OBSTRUCTIONS TO VISIBILITY.

WYZ001-051000-
YELLOWSTONE NATIONAL PARK

CITY           SKY/WX    TMP DP  RH WIND       PRES   REMARKS
LK YELLOWSTONE   N/A      5   2  87 CALM      30.30R
W YELLOWSTONE  NOT AVBL

$$
WYZ002>013-054>058-071-098>099-051000-
NORTHERN WYOMING

CITY           SKY/WX    TMP DP  RH WIND       PRES   REMARKS
JACKSON        CLOUDY    14  12  92 CALM      30.33F
CODY           FAIR      28   9  43 W10       30.22S WCI  19
GREYBULL       FAIR      17  13  84 S3        30.27S
WORLAND        MOCLDY    15  10  80 VRB3      30.27S
SHERIDAN       CLOUDY    31  26  82 NW26G35   30.20S WCI  17
BUFFALO          N/A     29  20  69 MISG      30.16S
GILLETTE       CLOUDY    28  25  88 W14       30.16S WCI  17
HULETT         LGT SNOW  30  27  86 W6        30.13R VSB 1   WCI  24
NEWCASTLE      PTSUNNY   25  18  74 N5        30.15F WCI  19

$$
WYZ014>020-022>026-101>103-051000-
CENTRAL WYOMING

CITY           SKY/WX    TMP DP  RH WIND       PRES   REMARKS
BIG PINEY      FAIR       7   2  80 N13       30.30R WCI  -9
PINEDALE       FAIR       7   1  78 W12       30.29S WCI  -9
DUBOIS         CLOUDY    19   9  63 NW12      30.24S WCI   7
LANDER         FAIR      18   2  49 S3        30.23R
RIVERTON       FAIR      21   7  54 NW18      30.24R WCI   6
CASPER         CLOUDY    22  10  60 SW14      30.22R WCI   9
DOUGLAS        CLOUDY    23  14  68 NW13      30.20R WCI  11

$$
WYZ021-027>030-104>119-051000-
SOUTHERN WYOMING

CITY           SKY/WX    TMP DP  RH WIND       PRES   REMARKS
EVANSTON       FAIR      16  12  84 W16       30.35R WCI   1
FORT BRIDGER   CLOUDY    21  19  93 W17       30.37R WCI   7
ROCK SPRINGS   FAIR      13   9  84 W15       30.29S WCI  -3
DIXON          FLURRIES  21  15  79 SW9       30.32S WCI  10
RAWLINS        FAIR      13   7  77 SW20      30.23S WCI  -5
SARATOGA       FAIR      16  10  79 W10       30.23S WCI   3
LARAMIE        FAIR      16   4  59 NW10      30.16R WCI   4
CHEYENNE       FAIR      24  10  55 NW14G24   30.15R WCI  12
TORRINGTON     CLOUDY    28  17  63 NW9       30.17R WCI  19
PINE BLUFFS    CLOUDY    27  18  69 NW22      30.16S WCI  12

$$



USA.gov is the U.S. government's official web portal to all federal, state and local government web resources and services.